This is the latest recevied weather packets stored in our database for station/object VY2CRA-4. If no packets are shown the sender has not sent any weather packets the latest 1 day(s).
| Time | Temp. | Humidity | Pressure | Rain* | Wind** | Luminosity | Snow |
|---|---|---|---|---|---|---|---|
| 1836274611 | 16.11° C | 45% | 1010 hPa | 0 mm | 0 m/s | - | - |
| 1778053675 | 15.56° C | 52% | 1008.6 hPa | 0 mm | 0 m/s | - | - |
| 1778052474 | 15.56° C | 51% | 1008.6 hPa | 0 mm | 0 m/s | - | - |
| 1778051273 | 15.56° C | 50% | 1008.4 hPa | 0 mm | 0 m/s | - | - |
| 1778050072 | 15.56° C | 49% | 1008.1 hPa | 0 mm | 0 m/s | - | - |
| 1778048871 | 16.11° C | 48% | 1008 hPa | 0 mm | 0 m/s | - | - |
| 1778047675 | 16.11° C | 48% | 1008.1 hPa | 0 mm | 0 m/s | - | - |
| 1778046469 | 16.11° C | 47% | 1008.1 hPa | 0 mm | 0 m/s | - | - |
| 1778045268 | 16.11° C | 46% | 1007.6 hPa | 0 mm | 0 m/s | - | - |
| 1778044068 | 16.11° C | 46% | 1007.3 hPa | 0 mm | 0 m/s | - | - |
| 1778042866 | 16.11° C | 45% | 1007.6 hPa | 0 mm | 0 m/s | - | - |
| 1778041666 | 16.67° C | 44% | 1007.7 hPa | 0 mm | 0 m/s | - | - |
| 1778040465 | 16.67° C | 42% | 1007.6 hPa | 0 mm | 0 m/s | - | - |
| 1778039264 | 17.22° C | 41% | 1007.7 hPa | 0 mm | 0 m/s | - | - |
| 1778038063 | 17.22° C | 40% | 1007.6 hPa | 0 mm | 0 m/s | - | - |
| 1778036862 | 17.78° C | 38% | 1007.6 hPa | 0 mm | 0 m/s | - | - |
| 1778035661 | 18.33° C | 36% | 1007.2 hPa | 0 mm | 0 m/s | - | - |
| 1778034460 | 18.89° C | 34% | 1007.3 hPa | 0 mm | 0 m/s | - | - |
| 1778033259 | 20° C | 31% | 1007.3 hPa | 0 mm | 0 m/s | - | - |
| 1778032058 | 21.11° C | 28% | 1007.1 hPa | 0 mm | 0 m/s | - | - |
| 1778030857 | 21.67° C | 27% | 1007 hPa | 0 mm | 0 m/s | - | - |
| 1778029656 | 22.22° C | 26% | 1006.9 hPa | 0 mm | 0 m/s | - | - |
| 1778028455 | 22.78° C | 24% | 1006.4 hPa | 0 mm | 0 m/s | - | - |
| 1778027254 | 23.33° C | 23% | 1006.1 hPa | 0 mm | 0 m/s | - | - |
| 1778026054 | 23.33° C | 21% | 1005.6 hPa | 0 mm | 0 m/s | - | - |
* Rain since midnight (hover to see other rain measurements)
** Current wind speed in m/s (hover to see current wind gust speed)